Regional Weather Roundup
Issued by NWS

Home | Current Version | Previous Version | Text Only | Print | Product List | Glossary On
Versions: 1 2 3 4 5 6 7 8 9 10 11 12 13 14 15 16 17 18 19 20 21 22 23 24 25 26 27 28 29 30 31 32 33 34 35 36 37 38 39 40 41 42 43 44 45 46 47 48 49 50
000
ASUS43 KOAX 021802
RWRNE
WEATHER ROUNDUP FOR NEBRASKA
NATIONAL WEATHER SERVICE OMAHA NE
100 PM CDT TUE JUN 02 2015

NOTES: SATELLITE DATA IS BEING USED TO AUGMENT CLOUD COVER ABOVE
       12000 FEET.
       "FAIR" INDICATES FEW OR NO CLOUDS BELOW 12,000 FEET WITH NO
       SIGNIFICANT WEATHER AND/OR OBSTRUCTIONS TO VISIBILITY.

  * THESE STATIONS DO NOT REPORT WEATHER SUCH AS RAIN...SNOW OR FOG.

NEZ001>004-019>022-054>056-021900-
NEBRASKA PANHANDLE

CITY           SKY/WX    TMP DP  RH WIND       PRES   REMARKS
SCOTTSBLUFF    MOSUNNY   77  61  57 SE6       29.87F
6HR MIN TEMP:  61; 6HR MAX TEMP:  77; 6HR PCP:  0.02;

ALLIANCE       SUNNY     77  61  57 VRB7      29.87F
6HR MIN TEMP:  59; 6HR MAX TEMP:  77;

CHADRON        MOSUNNY   79  62  56 VRB5      29.84R
6HR MIN TEMP:  60; 6HR MAX TEMP:  79;

KIMBALL          N/A    N/A N/A N/A MISG        N/A
SIDNEY         MOSUNNY   75  62  64 SW8       29.91F
6HR MIN TEMP:  56; 6HR MAX TEMP:  75;

$$

NEZ057>060-069>072-079>082-021900-
SOUTHWEST NEBRASKA

CITY           SKY/WX    TMP DP  RH WIND       PRES   REMARKS
NORTH PLATTE   MOSUNNY   80  63  55 S10       29.86F
6HR MIN TEMP:  61; 6HR MAX TEMP:  80;

IMPERIAL       SUNNY     79  65  62 S10       29.87F
6HR MIN TEMP:  58; 6HR MAX TEMP:  79;

LEXINGTON      MOSUNNY   72  66  82 SE10      29.89F
MCCOOK         SUNNY     80  67  64 SE15      29.87F
6HR MIN TEMP:  60; 6HR MAX TEMP:  81;

$$

NEZ005>010-023>029-035>040-094-021900-
NORTH CENTRAL NEBRASKA

CITY           SKY/WX    TMP DP  RH WIND       PRES   REMARKS
AINSWORTH      MOSUNNY   81  60  48 S15       29.85F
BROKEN BOW     MOSUNNY   75  64  68 S15G24    29.89F
6HR MIN TEMP:  64; 6HR MAX TEMP:  75;

O`NEILL        MOSUNNY   75  64  67 S16       29.89F
ORD            CLOUDY    69  61  75 S14       29.89F
6HR MIN TEMP:  61; 6HR MAX TEMP:  70;

$$

NEZ041-046>049-061>064-073>077-083>087-021900-
SOUTH CENTRAL NEBRASKA

CITY           SKY/WX    TMP DP  RH WIND       PRES   REMARKS
GRAND ISLAND   CLOUDY    67  59  75 S14       29.94S
6HR MIN TEMP:  59; 6HR MAX TEMP:  67;

HASTINGS       CLOUDY    69  62  78 S14       29.92F
6HR MIN TEMP:  60; 6HR MAX TEMP:  69;

KEARNEY *      CLOUDY    66  61  82 S13       29.92F
$$

NEZ011>018-030>034-042>045-021900-
NORTHEAST NEBRASKA

CITY           SKY/WX    TMP DP  RH WIND       PRES   REMARKS
NORFOLK        CLOUDY    72  61  68 S15G25    29.94S
6HR MIN TEMP:  60; 6HR MAX TEMP:  72;

COLUMBUS *     CLOUDY    70  57  64 SE14      29.96F
FREMONT        CLOUDY    70  57  64 S14       29.98F
TEKAMAH        PTSUNNY   75  57  53 S17       29.96F
6HR MIN TEMP:  59; 6HR MAX TEMP:  76;

$$

NEZ050>053-065>068-078-088>093-021900-
SOUTHEAST NEBRASKA

CITY           SKY/WX    TMP DP  RH WIND       PRES   REMARKS
LINCOLN        CLOUDY    70  60  70 SE16      29.97F
6HR MIN TEMP:  58; 6HR MAX TEMP:  70; 6HR PCP: TRACE;

OMAHA EPPLEY   PTSUNNY   73  58  59 SE15      29.99S
6HR MIN TEMP:  58; 6HR MAX TEMP:  73;

FALLS CITY     MOSUNNY   71  58  63 SE12      29.99S
6HR MIN TEMP:  56; 6HR MAX TEMP:  74;

PLATTSMOUTH    PTSUNNY   71  57  59 SE14      30.00F
$$

NEZ044-045-051>053-067-021900-
OMAHA AREA

CITY           SKY/WX    TMP DP  RH WIND       PRES   REMARKS
OMAHA EPPLEY   PTSUNNY   73  58  59 SE15      29.99S
6HR MIN TEMP:  58; 6HR MAX TEMP:  73;

FREMONT        CLOUDY    70  57  64 S14       29.98F
OFFUTT AFB     MOSUNNY   72  58  62 SE12      29.99R
PLATTSMOUTH    PTSUNNY   71  57  59 SE14      30.00F
$$


USA.gov is the U.S. government's official web portal to all federal, state and local government web resources and services.